{"data":{"norad_id":45399,"intl_designator":"2020-019AR","name":"STARLINK-1255","alt_names":[],"object_type":"PAYLOAD","status":"ACTIVE","operator":null,"country":"US","launch_date":"2020-03-18","launch_site_code":"AFETR","launch_vehicle":null,"mission":null,"orbit_class":"UNKNOWN","rcs_meters":null,"size_class":null,"mass_kg":null,"dimensions":null,"purposes":["comms"],"wikipedia_slug":null,"has_3d_model":false,"image_url":null,"decayed_at":null,"tle_current":{"epoch":"2026-05-25T02:59:10.538592Z","epoch_age_seconds":60463,"freshness":"FRESH","line1":"1 45399U 20019AR  26145.12442753  .00090866  00000+0  93597-3 0  9992","line2":"2 45399  53.0346  91.1154 0006038  68.5439 291.6218 15.64092957342350","mean_motion":15.64092957,"eccentricity":0.0006038,"inclination_deg":53.0346,"raan_deg":91.1154,"arg_perigee_deg":68.5439,"mean_anomaly_deg":291.6218,"bstar":0.00093597,"rev_number":34235,"period_min":92.066139263358,"perigee_km":371.77060590704,"apogee_km":379.92671899302,"semimajor_km":6753.98566245,"source":"CELESTRAK","updated_at":"2026-05-25T13:38:16.418468Z"}}}